Cumberland, WI

8:07 AM CST on December 13, 2019 (GMT -0600)
Cumberland Municipal

Weather History for KUBE - October, 2019

Change the Weather History Date:

Tuesday, October 22, 2019

  Actual Average (KRPD) Record (KRPD)
Temperature  
Mean Temperature 40 °F -  
Max Temperature 44 °F 51 °F 69 °F (2000)
Min Temperature 35 °F 35 °F 23 °F (2006)
Degree Days  
Heating Degree Days 26    
Moisture  
Dew Point 36 °F    
Average Humidity 88    
Maximum Humidity 93    
Minimum Humidity 81    
Precipitation  
Precipitation 0.00 in - - ()
Sea Level Pressure  
Sea Level Pressure 29.37 in    
Wind  
Wind Speed 11 mph ()    
Max Wind Speed 26 mph    
Max Gust Speed 33 mph    
Visibility 7.8 miles    
Events Rain    
Averages and records for this station are not official NWS values.
T = Trace of Precipitation, MM = Missing Value Source: Averaged Metar Reports

Daily Weather History Graph

Daily Weather History Graph

Search for Another Location

Airport or City:

Astronomy

Oct. 22, 2019 Rise Set
Actual Time 7:33 AM CDT 6:10 PM CDT
Civil Twilight 7:03 AM CDT 6:40 PM CDT
Nautical Twilight 6:28 AM CDT 7:15 PM CDT
Astronomical Twilight 5:54 AM CDT 7:49 PM CDT
Moon 12:18 AM CDT (10/22) 3:43 PM CDT (10/22)
Length of Visible Light 11h 37m
Length of Day
10h 37m
Last Quarter, 37% of the Moon is Illuminated
Oct 22
Last Quarter
Oct 27
New
Nov 4
First Quarter
Nov 12
Full
Nov 19
Last Quarter

Hourly Weather History & Observations

Time (CDT) Temp. Windchill Dew Point Humidity Pressure Visibility Wind Dir Wind Speed Gust Speed Precip Events Conditions
12:15 AM 44.6 °F 42.2 °F 42.8 °F 93% 29.20 in 10.0 mi ESE 4.6 mph - N/A   Overcast
12:35 AM 44.6 °F 43.1 °F 41.0 °F 87% 29.19 in 7.0 mi SE 3.5 mph - N/A   Overcast
12:55 AM 42.8 °F 41.1 °F 41.0 °F 93% 29.19 in 10.0 mi ESE 3.5 mph - N/A   Overcast
1:15 AM 42.8 °F 40.1 °F 41.0 °F 93% 29.19 in 10.0 mi East 4.6 mph - N/A   Overcast
1:35 AM 42.8 °F 41.1 °F 41.0 °F 93% 29.18 in 10.0 mi East 3.5 mph - N/A   Overcast
1:55 AM 42.8 °F - 41.0 °F 93% 29.19 in 10.0 mi Calm Calm - N/A   Mostly Cloudy
2:15 AM 42.8 °F - 41.0 °F 93% 29.18 in 10.0 mi Calm Calm - N/A   Overcast
2:35 AM 42.8 °F - 41.0 °F 93% 29.18 in 10.0 mi Calm Calm - N/A   Overcast
2:55 AM 42.8 °F - 41.0 °F 93% 29.18 in 10.0 mi Calm Calm - N/A   Overcast
3:15 AM 42.8 °F - 41.0 °F 93% 29.18 in 10.0 mi Calm Calm - N/A   Overcast
3:35 AM 42.8 °F - 41.0 °F 93% 29.18 in 10.0 mi Calm Calm - N/A   Overcast
3:55 AM 42.8 °F - 41.0 °F 93% 29.18 in 10.0 mi Calm Calm - N/A   Overcast
4:15 AM 42.8 °F - 41.0 °F 93% 29.18 in 10.0 mi Calm Calm - N/A   Overcast
4:35 AM 42.8 °F 41.1 °F 41.0 °F 93% 29.18 in 2.5 mi West 3.5 mph - N/A   Drizzle
4:55 AM 42.8 °F 36.2 °F 41.0 °F 93% 29.19 in 2.5 mi WNW 12.7 mph 19.6 mph N/A Rain Rain
5:15 AM 41.0 °F 32.8 °F 37.4 °F 87% 29.20 in 4.0 mi NW 16.1 mph 21.9 mph N/A   Overcast
5:35 AM 41.0 °F 33.1 °F 37.4 °F 87% 29.21 in 5.0 mi WNW 15.0 mph 23.0 mph N/A Rain Light Rain
5:55 AM 39.2 °F 31.2 °F 35.6 °F 87% 29.22 in 10.0 mi WNW 13.8 mph 23.0 mph N/A Rain Light Rain
6:15 AM 37.4 °F 28.9 °F 35.6 °F 93% 29.23 in 7.0 mi WNW 13.8 mph 25.3 mph N/A Rain Rain
6:35 AM 37.4 °F 30.3 °F 35.6 °F 93% 29.24 in 10.0 mi WNW 10.4 mph 19.6 mph N/A Rain Light Rain
6:55 AM 37.4 °F 30.8 °F 35.6 °F 93% 29.24 in 10.0 mi WNW 9.2 mph 16.1 mph N/A   Drizzle
7:35 AM 39.2 °F 31.6 °F 37.4 °F 93% 29.24 in 4.0 mi West 12.7 mph 16.1 mph N/A Rain Rain
7:55 AM 39.2 °F 30.5 °F 37.4 °F 93% 29.25 in 3.0 mi WNW 16.1 mph 21.9 mph N/A   Drizzle
8:15 AM 41.0 °F 31.9 °F 37.4 °F 87% 29.25 in 5.0 mi WNW 19.6 mph 26.5 mph N/A   Drizzle
8:35 AM 41.0 °F 31.4 °F 37.4 °F 87% 29.26 in 5.0 mi WNW 21.9 mph 27.6 mph N/A   Drizzle
8:55 AM 39.2 °F 29.8 °F 35.6 °F 87% 29.27 in 4.0 mi West 18.4 mph 28.8 mph N/A   Drizzle
9:15 AM 39.2 °F 30.5 °F 35.6 °F 87% 29.28 in 5.0 mi West 16.1 mph 27.6 mph N/A   Drizzle
9:35 AM 39.2 °F 29.0 °F 35.6 °F 87% 29.29 in 5.0 mi West 21.9 mph 27.6 mph N/A Rain Rain
9:55 AM 39.2 °F 29.8 °F 35.6 °F 87% 29.30 in 5.0 mi West 18.4 mph 28.8 mph N/A   Drizzle
10:15 AM 39.2 °F 29.0 °F 35.6 °F 87% 29.30 in 7.0 mi West 21.9 mph 29.9 mph N/A Rain Light Rain
10:35 AM 39.2 °F 29.6 °F 35.6 °F 87% 29.31 in 5.0 mi West 19.6 mph 27.6 mph N/A Rain Light Rain
10:55 AM 39.2 °F 28.3 °F 35.6 °F 87% 29.32 in 4.0 mi West 25.3 mph 28.8 mph N/A Rain Light Rain
11:15 AM 39.2 °F 29.3 °F 35.6 °F 87% 29.33 in 5.0 mi West 20.7 mph 27.6 mph N/A Rain Light Rain
11:35 AM 39.2 °F 29.8 °F 35.6 °F 87% 29.34 in 4.0 mi West 18.4 mph 29.9 mph N/A Rain Rain
11:55 AM 39.2 °F 29.8 °F 35.6 °F 87% 29.35 in 4.0 mi West 18.4 mph 27.6 mph N/A   Drizzle
12:15 PM 37.4 °F 26.9 °F 35.6 °F 93% 29.36 in 2.0 mi West 20.7 mph 32.2 mph N/A   Drizzle
12:35 PM 37.4 °F 26.6 °F 35.6 °F 93% 29.36 in 5.0 mi West 21.9 mph 32.2 mph N/A   Drizzle
12:55 PM 37.4 °F 26.1 °F 35.6 °F 93% 29.37 in 7.0 mi West 24.2 mph 29.9 mph N/A Rain Light Rain
1:15 PM 37.4 °F 26.4 °F 35.6 °F 93% 29.37 in 7.0 mi West 23.0 mph 33.4 mph N/A Rain Light Rain
1:35 PM 37.4 °F 26.1 °F 35.6 °F 93% 29.38 in 5.0 mi West 24.2 mph 33.4 mph N/A   Light Drizzle
1:55 PM 37.4 °F 27.5 °F 35.6 °F 93% 29.39 in 7.0 mi West 18.4 mph 28.8 mph N/A Rain Rain
2:15 PM 37.4 °F 26.4 °F 33.8 °F 87% 29.40 in 7.0 mi West 23.0 mph 27.6 mph N/A   Drizzle
2:55 PM 37.4 °F 25.6 °F 35.6 °F 93% 29.42 in 10.0 mi West 26.5 mph 31.1 mph N/A   Light Drizzle
3:15 PM 37.4 °F 26.6 °F 33.8 °F 87% 29.43 in 10.0 mi West 21.9 mph 28.8 mph N/A   Overcast
3:35 PM 37.4 °F 27.5 °F 35.6 °F 93% 29.44 in 4.0 mi West 18.4 mph 32.2 mph N/A   Overcast
3:55 PM 37.4 °F 27.5 °F 33.8 °F 87% 29.45 in 10.0 mi West 18.4 mph 27.6 mph N/A   Drizzle
4:15 PM 37.4 °F 28.5 °F 35.6 °F 93% 29.46 in 7.0 mi West 15.0 mph 24.2 mph N/A   Light Drizzle
4:35 PM 37.4 °F 27.8 °F 33.8 °F 87% 29.48 in 10.0 mi West 17.3 mph 24.2 mph N/A   Overcast
4:55 PM 37.4 °F 26.6 °F 33.8 °F 87% 29.49 in 7.0 mi West 21.9 mph 27.6 mph N/A   Overcast
5:15 PM 37.4 °F 26.9 °F 33.8 °F 87% 29.50 in 10.0 mi West 20.7 mph 26.5 mph N/A   Overcast
5:35 PM 37.4 °F 26.6 °F 33.8 °F 87% 29.51 in 7.0 mi West 21.9 mph 31.1 mph N/A   Overcast
5:55 PM 37.4 °F 27.5 °F 33.8 °F 87% 29.51 in 7.0 mi West 18.4 mph 28.8 mph N/A   Overcast
6:15 PM 37.4 °F 27.8 °F 33.8 °F 87% 29.52 in 10.0 mi West 17.3 mph 26.5 mph N/A   Overcast
6:35 PM 37.4 °F 26.9 °F 32.0 °F 81% 29.54 in 10.0 mi West 20.7 mph 32.2 mph N/A   Overcast
6:55 PM 37.4 °F 26.9 °F 32.0 °F 81% 29.54 in 10.0 mi West 20.7 mph 28.8 mph N/A   Overcast
7:15 PM 37.4 °F 26.1 °F 32.0 °F 81% 29.55 in 10.0 mi West 24.2 mph 31.1 mph N/A   Overcast
7:35 PM 37.4 °F 27.5 °F 32.0 °F 81% 29.56 in 10.0 mi West 18.4 mph 31.1 mph N/A   Overcast
7:55 PM 37.4 °F 26.4 °F 32.0 °F 81% 29.56 in 10.0 mi West 23.0 mph 28.8 mph N/A   Overcast
8:15 PM 37.4 °F 26.6 °F 32.0 °F 81% 29.57 in 10.0 mi West 21.9 mph 29.9 mph N/A   Overcast
8:35 PM 37.4 °F 28.5 °F 32.0 °F 81% 29.57 in 10.0 mi West 15.0 mph 28.8 mph N/A   Overcast
8:55 PM 37.4 °F 27.5 °F 32.0 °F 81% 29.58 in 10.0 mi West 18.4 mph 26.5 mph N/A   Overcast
9:15 PM 35.6 °F 25.5 °F 32.0 °F 87% 29.59 in 10.0 mi West 17.3 mph 26.5 mph N/A   Overcast
9:35 PM 35.6 °F 25.5 °F 32.0 °F 87% 29.59 in 10.0 mi West 17.3 mph 21.9 mph N/A   Light Drizzle
9:55 PM 35.6 °F 26.2 °F 33.8 °F 93% 29.60 in 10.0 mi West 15.0 mph 24.2 mph N/A Rain Light Rain
10:15 PM 37.4 °F 28.2 °F 32.0 °F 81% 29.60 in 10.0 mi West 16.1 mph 25.3 mph N/A   Overcast
10:35 PM 35.6 °F 26.2 °F 32.0 °F 87% 29.61 in 10.0 mi West 15.0 mph 25.3 mph N/A   Overcast
10:55 PM 37.4 °F 28.5 °F 32.0 °F 81% 29.61 in 10.0 mi West 15.0 mph 20.7 mph N/A   Overcast
11:35 PM 37.4 °F 27.5 °F 32.0 °F 81% 29.62 in 10.0 mi West 18.4 mph 27.6 mph N/A   Overcast
11:55 PM 37.4 °F 27.5 °F 32.0 °F 81% 29.62 in 10.0 mi West 18.4 mph - N/A   Overcast